Zurück zum Katalog

FENGYUN 1C DEB

AktivSSO
NORAD 30873·DEBRIS·🇨🇳 China

Gestartet May 10, 1999 von Taiyuan Satellite Launch Center

Loading…

Nächste Überflüge (nächste 24 Stunden)

TLE

AktuellSource: Space-Track

Epoche: Sep 14, 2026, 22:51 UTC

1 30873U 99025AXK 26257.95257135  .00000175  00000-0  98186-4 0  9994
2 30873  98.6223 255.7706 0107775 210.8867 148.5941 14.19347826 11115

Verfolge FENGYUN 1C DEB in Echtzeit mit AllMySat

Download on the App Store